| time (UTC) | temp F | wind direction | speed knots | gust knots | rain 1hr in | rain 24hr in | rain mn in | humidity % | barometer mb |
| 20260505214420 | 48 | 12 | 7.8 | 15.6 | 0.00 | 0.28 | 0.28 | 91 | 1011.9 |
| 20260505213917 | 48 | 27 | 5.2 | 14.8 | 0.00 | 0.28 | 0.28 | 91 | 1011.8 |
| 20260505213415 | 48 | 14 | 7.8 | 20.9 | 0.00 | 0.28 | 0.28 | 90 | 1012.0 |
| 20260505212911 | 48 | 6 | 7.0 | 17.4 | 0.00 | 0.28 | 0.28 | 91 | 1011.9 |
| 20260505212408 | 48 | 25 | 13.0 | 20.9 | 0.00 | 0.28 | 0.28 | 91 | 1012.0 |
| 20260505211904 | 48 | 337 | 9.6 | 17.4 | 0.00 | 0.28 | 0.28 | 92 | 1012.0 |
| 20260505211402 | 48 | 20 | 14.8 | 23.5 | 0.00 | 0.28 | 0.28 | 93 | 1011.8 |
| 20260505210858 | 49 | 340 | 5.2 | 12.2 | 0.00 | 0.28 | 0.28 | 94 | 1012.0 |
| 20260505210356 | 49 | 4 | 10.4 | 13.0 | 0.00 | 0.28 | 0.28 | 94 | 1012.0 |
| 20260505205852 | 48 | 19 | 13.0 | 16.5 | 0.00 | 0.28 | 0.28 | 94 | 1012.2 |
| 20260505205351 | 48 | 351 | 6.1 | 17.4 | 0.00 | 0.28 | 0.28 | 95 | 1012.2 |
| 20260505204847 | 49 | 355 | 13.0 | 18.2 | 0.00 | 0.28 | 0.28 | 95 | 1012.3 |
| 20260505204345 | 49 | 10 | 13.9 | 22.6 | 0.00 | 0.28 | 0.28 | 96 | 1012.0 |
| 20260505203842 | 49 | 13 | 11.3 | 18.2 | 0.00 | 0.28 | 0.28 | 96 | 1011.8 |
| 20260505203338 | 50 | 331 | 4.3 | 9.6 | 0.00 | 0.28 | 0.28 | 97 | 1011.9 |
| 20260505202835 | 50 | 7 | 13.9 | 16.5 | 0.00 | 0.28 | 0.28 | 96 | 1011.8 |
| 20260505202331 | 50 | 11 | 12.2 | 19.1 | 0.00 | 0.28 | 0.28 | 96 | 1011.4 |
| 20260505201828 | 50 | 9 | 7.8 | 16.5 | 0.00 | 0.28 | 0.28 | 96 | 1012.0 |
| 20260505201325 | 50 | 38 | 6.1 | 12.2 | 0.00 | 0.28 | 0.28 | 96 | 1011.9 |
| 20260505200823 | 50 | 11 | 9.6 | 13.9 | 0.00 | 0.28 | 0.28 | 96 | 1011.8 |
| 20260505200320 | 50 | 16 | 7.8 | 16.5 | 0.00 | 0.28 | 0.28 | 96 | 1011.8 |
| 20260505195815 | 50 | 3 | 7.8 | 14.8 | 0.00 | 0.28 | 0.28 | 96 | 1011.9 |
| 20260505195313 | 51 | 346 | 5.2 | 12.2 | 0.00 | 0.28 | 0.28 | 96 | 1012.2 |
| 20260505194810 | 51 | 15 | 13.0 | 14.8 | 0.00 | 0.28 | 0.28 | 95 | 1012.0 |
| 20260505194307 | 51 | 359 | 5.2 | 13.9 | 0.00 | 0.28 | 0.28 | 95 | 1011.8 |
| 20260505193802 | 51 | 0 | 7.0 | 13.0 | 0.00 | 0.28 | 0.28 | 95 | 1011.6 |
| 20260505193300 | 51 | 8 | 12.2 | 18.2 | 0.00 | 0.28 | 0.28 | 94 | 1011.5 |
| 20260505192758 | 51 | 13 | 11.3 | 13.0 | 0.00 | 0.28 | 0.28 | 94 | 1011.4 |
| 20260505192256 | 52 | 6 | 11.3 | 12.2 | 0.00 | 0.28 | 0.28 | 93 | 1011.2 |
| 20260505191753 | 52 | 21 | 13.9 | 17.4 | 0.00 | 0.28 | 0.28 | 92 | 1011.3 |
| 20260505191252 | 52 | 26 | 11.3 | 16.5 | 0.00 | 0.28 | 0.28 | 92 | 1011.5 |
| 20260505190748 | 52 | 17 | 13.0 | 14.8 | 0.00 | 0.28 | 0.28 | 92 | 1011.3 |
| 20260505190243 | 52 | 78 | 6.1 | 17.4 | 0.00 | 0.28 | 0.28 | 92 | 1011.8 |
| 20260505185739 | 52 | 340 | 6.1 | 15.6 | 0.00 | 0.28 | 0.28 | 93 | 1012.0 |
| 20260505185236 | 52 | 11 | 13.0 | 17.4 | 0.00 | 0.28 | 0.28 | 92 | 1011.9 |
| 20260505184732 | 52 | 341 | 7.0 | 11.3 | 0.00 | 0.28 | 0.28 | 93 | 1011.6 |
| 20260505184230 | 53 | 11 | 6.1 | 15.6 | 0.00 | 0.28 | 0.28 | 93 | 1011.5 |
| 20260505183726 | 53 | 9 | 7.0 | 9.6 | 0.00 | 0.28 | 0.28 | 93 | 1011.4 |
| 20260505183224 | 53 | 16 | 14.8 | 14.8 | 0.00 | 0.28 | 0.28 | 92 | 1011.4 |
| 20260505182720 | 53 | 3 | 7.8 | 16.5 | 0.00 | 0.28 | 0.28 | 93 | 1011.2 |
| 20260505182217 | 53 | 15 | 7.0 | 13.0 | 0.00 | 0.28 | 0.28 | 94 | 1011.1 |
| 20260505181713 | 53 | 13 | 8.7 | 17.4 | 0.00 | 0.28 | 0.28 | 93 | 1010.8 |
| 20260505181211 | 53 | 16 | 7.0 | 15.6 | 0.00 | 0.28 | 0.28 | 92 | 1011.3 |
| 20260505180707 | 53 | 0 | 4.3 | 12.2 | 0.00 | 0.28 | 0.28 | 93 | 1011.3 |
| 20260505180204 | 53 | 6 | 7.8 | 16.5 | 0.00 | 0.28 | 0.28 | 92 | 1011.3 |
| 20260505175700 | 54 | 14 | 7.0 | 12.2 | 0.00 | 0.28 | 0.28 | 92 | 1011.4 |
| 20260505175157 | 54 | 21 | 4.3 | 11.3 | 0.00 | 0.28 | 0.28 | 91 | 1010.9 |
| 20260505174653 | 54 | 4 | 9.6 | 14.8 | 0.00 | 0.28 | 0.28 | 91 | 1011.1 |
| 20260505174149 | 54 | 58 | 8.7 | 13.0 | 0.00 | 0.28 | 0.28 | 91 | 1010.9 |
| 20260505173646 | 54 | 34 | 6.1 | 12.2 | 0.00 | 0.28 | 0.28 | 91 | 1011.1 |
| 20260505173143 | 54 | 15 | 9.6 | 12.2 | 0.00 | 0.28 | 0.28 | 91 | 1010.8 |
| 20260505172641 | 54 | 43 | 4.3 | 13.0 | 0.00 | 0.28 | 0.28 | 91 | 1010.7 |
| 20260505172137 | 55 | 0 | 3.5 | 9.6 | 0.00 | 0.28 | 0.28 | 91 | 1011.2 |
| 20260505171637 | 55 | 5 | 7.0 | 16.5 | 0.00 | 0.28 | 0.28 | 91 | 1011.2 |
| 20260505171135 | 55 | 0 | 4.3 | 13.0 | 0.00 | 0.28 | 0.28 | 91 | 1010.8 |
| 20260505170632 | 55 | 34 | 5.2 | 7.8 | 0.00 | 0.28 | 0.28 | 91 | 1010.8 |
| 20260505170128 | 55 | 9 | 3.5 | 15.6 | 0.00 | 0.28 | 0.28 | 91 | 1010.9 |
| 20260505165623 | 55 | 12 | 8.7 | 14.8 | 0.00 | 0.28 | 0.28 | 91 | 1010.7 |
| 20260505165119 | 55 | 5 | 5.2 | 12.2 | 0.00 | 0.28 | 0.28 | 92 | 1010.7 |
| 20260505164615 | 55 | 1 | 6.1 | 16.5 | 0.00 | 0.28 | 0.28 | 92 | 1010.5 |
| 20260505164113 | 55 | 1 | 5.2 | 10.4 | 0.00 | 0.28 | 0.28 | 93 | 1010.4 |
| 20260505163611 | 55 | 8 | 9.6 | 15.6 | 0.00 | 0.28 | 0.28 | 93 | 1010.5 |
| 20260505163108 | 54 | 7 | 7.0 | 13.0 | 0.00 | 0.28 | 0.28 | 94 | 1010.7 |
| 20260505162606 | 55 | 15 | 10.4 | 13.0 | 0.00 | 0.28 | 0.28 | 94 | 1010.4 |
| 20260505162103 | 55 | 24 | 8.7 | 13.9 | 0.00 | 0.28 | 0.28 | 95 | 1010.4 |
| 20260505161600 | 55 | 1 | 5.2 | 12.2 | 0.00 | 0.28 | 0.28 | 95 | 1010.2 |
| 20260505161057 | 55 | 7 | 9.6 | 13.0 | 0.00 | 0.28 | 0.28 | 95 | 1010.4 |
| 20260505160555 | 55 | 19 | 8.7 | 15.6 | 0.00 | 0.28 | 0.28 | 95 | 1010.3 |
| 20260505153032 | 57 | 19 | 1.7 | 10.4 | 0.00 | 0.28 | 0.28 | 99 | 1010.3 |
| 20260505152528 | 57 | 17 | 6.1 | 9.6 | 0.00 | 0.28 | 0.28 | 99 | 1010.3 |
| 20260505152024 | 57 | 5 | 6.1 | 8.7 | 0.00 | 0.28 | 0.28 | 99 | 1010.4 |
| 20260505151519 | 57 | 6 | 3.5 | 11.3 | 0.00 | 0.28 | 0.28 | 99 | 1010.2 |
| 20260505151017 | 58 | 31 | 2.6 | 9.6 | 0.00 | 0.28 | 0.28 | 99 | 1010.2 |
| 20260505150513 | 57 | 34 | 5.2 | 8.7 | 0.00 | 0.28 | 0.28 | 99 | 1010.1 |
| 20260505140433 | 59 | 352 | 4.3 | 5.2 | 0.00 | 0.28 | 0.28 | 98 | 1009.8 |
| 20260505124846 | 59 | 10 | 2.6 | 6.1 | 0.00 | 0.28 | 0.28 | 96 | 1009.6 |
| 20260505124343 | 59 | 25 | 5.2 | 5.2 | 0.00 | 0.28 | 0.28 | 96 | 1009.5 |
| 20260505123839 | 58 | 47 | 5.2 | 7.0 | 0.00 | 0.28 | 0.28 | 96 | 1009.6 |
| 20260505123336 | 59 | 20 | 0.9 | 5.2 | 0.00 | 0.28 | 0.28 | 96 | 1009.3 |
| 20260505122831 | 58 | 11 | 0.9 | 5.2 | 0.00 | 0.28 | 0.28 | 96 | 1009.5 |
| 20260505122329 | 59 | 4 | 5.2 | 7.8 | 0.00 | 0.28 | 0.28 | 96 | 1009.0 |
| 20260505121826 | 59 | 28 | 7.8 | 7.8 | 0.00 | 0.28 | 0.28 | 96 | 1009.0 |
| 20260505121323 | 58 | 53 | 3.5 | 5.2 | 0.00 | 0.28 | 0.28 | 96 | 1009.0 |
| 20260505120819 | 58 | 8 | 3.5 | 5.2 | 0.00 | 0.28 | 0.28 | 96 | 1008.9 |
| 20260505120315 | 58 | 30 | 4.3 | 5.2 | 0.00 | 0.28 | 0.28 | 96 | 1009.0 |
| 20260505115814 | 58 | 32 | 5.2 | 7.0 | 0.00 | 0.28 | 0.28 | 96 | 1008.8 |
| 20260505115311 | 58 | 48 | 4.3 | 5.2 | 0.00 | 0.28 | 0.28 | 96 | 1009.0 |
| 20260505114809 | 58 | 60 | 2.6 | 4.3 | 0.00 | 0.28 | 0.28 | 96 | 1009.0 |
| 20260505114305 | 59 | 355 | 0.9 | 3.5 | 0.00 | 0.28 | 0.28 | 96 | 1009.1 |
| 20260505113801 | 59 | 355 | 4.3 | 7.0 | 0.00 | 0.28 | 0.28 | 96 | 1009.4 |
| 20260505113258 | 59 | 350 | 2.6 | 5.2 | 0.00 | 0.28 | 0.28 | 96 | 1009.0 |
| 20260505112754 | 58 | 0 | 2.6 | 7.8 | 0.00 | 0.28 | 0.28 | 96 | 1008.9 |
| 20260505112252 | 59 | 4 | 4.3 | 7.0 | 0.00 | 0.28 | 0.28 | 96 | 1009.1 |
| 20260505111747 | 59 | 5 | 2.6 | 5.2 | 0.00 | 0.28 | 0.28 | 96 | 1008.9 |
| 20260505111243 | 59 | 359 | 5.2 | 8.7 | 0.00 | 0.28 | 0.28 | 96 | 1008.6 |
| 20260505110739 | 59 | 355 | 2.6 | 6.1 | 0.00 | 0.28 | 0.28 | 96 | 1008.6 |
| 20260505110237 | 59 | 352 | 3.5 | 8.7 | 0.09 | 0.28 | 0.28 | 95 | 1008.5 |
| 20260505102212 | 60 | 212 | 2.6 | 2.6 | 0.05 | 0.24 | 0.24 | 95 | 1009.1 |
| 20260505101710 | 60 | 191 | 2.6 | 3.5 | 0.05 | 0.24 | 0.24 | 95 | 1008.3 |
| 20260505101206 | 60 | 196 | 3.5 | 4.3 | 0.00 | 0.23 | 0.23 | 95 | 1008.6 |
| 20260505100703 | 60 | 163 | 2.6 | 6.1 | 0.00 | 0.23 | 0.23 | 95 | 1008.6 |
| 20260505100200 | 60 | 151 | 4.3 | 6.1 | 0.05 | 0.23 | 0.23 | 95 | 1008.6 |
| 20260505095655 | 60 | 140 | 5.2 | 7.0 | 0.09 | 0.23 | 0.23 | 95 | 1008.6 |
| 20260505095154 | 60 | 172 | 4.3 | 6.1 | 0.17 | 0.22 | 0.22 | 95 | 1008.6 |
| 20260505094649 | 60 | 135 | 5.2 | 7.8 | 0.09 | 0.21 | 0.21 | 95 | 1008.3 |
| 20260505094145 | 60 | 170 | 5.2 | 6.1 | 0.05 | 0.20 | 0.20 | 95 | 1009.1 |
| 20260505093642 | 60 | 181 | 5.2 | 5.2 | 0.05 | 0.19 | 0.19 | 95 | 1008.5 |
| 20260505093140 | 59 | 161 | 4.3 | 7.8 | 0.07 | 0.19 | 0.19 | 95 | 1008.3 |
| 20260505092636 | 60 | 144 | 5.2 | 8.7 | 0.19 | 0.18 | 0.18 | 95 | 1008.3 |
| 20260505092135 | 60 | 166 | 4.3 | 5.2 | 0.12 | 0.17 | 0.17 | 95 | 1008.6 |
| 20260505091631 | 59 | 160 | 4.3 | 6.1 | 0.02 | 0.15 | 0.15 | 95 | 1008.8 |
| 20260505091129 | 60 | 145 | 3.5 | 5.2 | 0.00 | 0.15 | 0.15 | 95 | 1008.5 |
| 20260505090626 | 60 | 134 | 4.3 | 5.2 | 0.05 | 0.15 | 0.15 | 95 | 1008.3 |
| 20260505090125 | 60 | 146 | 2.6 | 7.8 | 0.05 | 0.15 | 0.15 | 95 | 1008.3 |
| 20260505085622 | 60 | 141 | 6.1 | 7.0 | 0.05 | 0.14 | 0.14 | 95 | 1008.3 |
| 20260505085120 | 60 | 148 | 4.3 | 6.1 | 0.12 | 0.14 | 0.14 | 95 | 1009.0 |
| 20260505084617 | 60 | 146 | 6.1 | 7.0 | 0.05 | 0.13 | 0.13 | 95 | 1008.5 |
| 20260505084116 | 60 | 129 | 2.6 | 4.3 | 0.02 | 0.12 | 0.12 | 95 | 1009.0 |
| 20260505083613 | 60 | 142 | 2.6 | 6.1 | 0.07 | 0.12 | 0.12 | 95 | 1009.0 |
| 20260505083109 | 60 | 141 | 4.3 | 4.3 | 0.12 | 0.12 | 0.12 | 95 | 1009.1 |
| 20260505082605 | 60 | 152 | 2.6 | 2.6 | 0.05 | 0.11 | 0.11 | 95 | 1009.5 |
| 20260505082102 | 60 | 117 | 0.0 | 1.7 | 0.02 | 0.10 | 0.10 | 95 | 1009.7 |
| 20260505081558 | 60 | 287 | 2.6 | 2.6 | 0.05 | 0.09 | 0.09 | 95 | 1009.8 |
| 20260505081055 | 60 | 310 | 1.7 | 2.6 | 0.07 | 0.09 | 0.09 | 95 | 1009.8 |
| 20260505080551 | 60 | 346 | 1.7 | 2.6 | 0.07 | 0.08 | 0.08 | 95 | 1009.4 |
| 20260505080049 | 60 | 121 | 2.6 | 3.5 | 0.09 | 0.07 | 0.07 | 98 | 1008.7 |
| 20260505075544 | 60 | 165 | 0.0 | 1.7 | 0.17 | 0.07 | 0.07 | 98 | 1009.6 |
| 20260505075041 | 60 | 49 | 1.7 | 2.6 | 0.17 | 0.06 | 0.06 | 99 | 1009.6 |
| 20260505074538 | 60 | 341 | 1.7 | 1.7 | 0.17 | 0.04 | 0.04 | 99 | 1010.4 |
| 20260505074035 | 60 | 273 | 2.6 | 3.5 | 0.12 | 0.02 | 0.02 | 99 | 1010.7 |
| 20260505073533 | 60 | 285 | 1.7 | 4.3 | 0.02 | 0.01 | 0.01 | 99 | 1010.7 |
| 20260505073032 | 60 | 295 | 4.3 | 4.3 | 0.00 | 0.00 | 0.00 | 99 | 1010.6 |
| 20260505072526 | 60 | 285 | 2.6 | 3.5 | 0.00 | 0.00 | 0.00 | 99 | 1010.8 |
| 20260505072023 | 60 | 290 | 1.7 | 4.3 | 0.00 | 0.00 | 0.00 | 98 | 1010.8 |
| 20260505071518 | 60 | 273 | 3.5 | 4.3 | 0.00 | 0.00 | 0.00 | 98 | 1010.8 |
| 20260505071017 | 61 | 279 | 5.2 | 6.1 | 0.00 | 0.00 | 0.00 | 98 | 1011.5 |
| 20260505070514 | 61 | 252 | 4.3 | 7.0 | 0.00 | 0.00 | 0.00 | 98 | 1011.6 |
| 20260505070010 | 61 | 264 | 4.3 | 6.1 | 0.00 | 0.00 | 0.00 | 97 | 1011.6 |
| 20260505065506 | 61 | 268 | 4.3 | 5.2 | 0.00 | 0.00 | 0.00 | 96 | 1010.6 |
| 20260505065002 | 61 | 270 | 0.0 | 4.3 | 0.00 | 0.00 | 0.00 | 95 | 1010.4 |
| 20260505064459 | 61 | 245 | 1.7 | 5.2 | 0.00 | 0.00 | 0.00 | 95 | 1010.4 |
| 20260505063958 | 62 | 270 | 2.6 | 8.7 | 0.00 | 0.00 | 0.00 | 94 | 1010.4 |
| 20260505063454 | 62 | 287 | 5.2 | 9.6 | 0.00 | 0.00 | 0.00 | 92 | 1010.2 |
| 20260505062950 | 62 | 175 | 6.1 | 13.9 | 0.00 | 0.00 | 0.00 | 90 | 1009.3 |
| 20260505062447 | 63 | 178 | 7.0 | 13.0 | 0.02 | 0.00 | 0.00 | 88 | 1009.0 |
| 20260505061944 | 64 | 206 | 8.7 | 14.8 | 0.02 | 0.00 | 0.00 | 85 | 1008.9 |
| 20260505061442 | 64 | 198 | 7.0 | 13.0 | 0.00 | 0.00 | 0.00 | 82 | 1008.9 |
| 20260505060940 | 64 | 180 | 4.3 | 11.3 | 0.00 | 0.00 | 0.00 | 82 | 1008.9 |
| 20260505060437 | 65 | 174 | 7.0 | 10.4 | 0.00 | 0.00 | 0.00 | 81 | 1009.3 |
| 20260505055933 | 65 | 163 | 4.3 | 9.6 | 0.00 | 0.00 | 0.00 | 80 | 1008.8 |
| 20260505055429 | 65 | 135 | 7.0 | 9.6 | 0.00 | 0.00 | 0.00 | 78 | 1009.0 |
| 20260505054926 | 65 | 163 | 4.3 | 6.1 | 0.00 | 0.00 | 0.00 | 78 | 1009.4 |
| 20260505054423 | 66 | 166 | 4.3 | 6.1 | 0.00 | 0.00 | 0.00 | 78 | 1009.4 |
| 20260505053921 | 66 | 206 | 4.3 | 6.1 | 0.00 | 0.00 | 0.00 | 77 | 1009.4 |
| 20260505053418 | 65 | 153 | 4.3 | 6.1 | 0.00 | 0.00 | 0.00 | 78 | 1009.3 |
| 20260505052915 | 65 | 167 | 4.3 | 6.1 | 0.00 | 0.00 | 0.00 | 79 | 1009.3 |
| 20260505052412 | 65 | 159 | 4.3 | 5.2 | 0.00 | 0.00 | 0.00 | 80 | 1009.4 |
| 20260505051909 | 65 | 163 | 4.3 | 4.3 | 0.00 | 0.00 | 0.00 | 80 | 1009.5 |
| 20260505051406 | 65 | 170 | 2.6 | 5.2 | 0.00 | 0.00 | 0.00 | 79 | 1009.4 |
| 20260505050904 | 65 | 164 | 5.2 | 6.1 | 0.00 | 0.00 | 0.00 | 79 | 1009.2 |
| 20260505050402 | 65 | 166 | 4.3 | 5.2 | 0.00 | 0.00 | 0.00 | 80 | 1009.1 |
| 20260505041330 | 65 | 162 | 4.3 | 6.1 | 0.00 | 0.00 | 0.00 | 80 | 1009.7 |
| 20260505040827 | 65 | 167 | 2.6 | 6.1 | 0.00 | 0.00 | 0.00 | 80 | 1009.4 |
| 20260505040324 | 64 | 150 | 3.5 | 4.3 | 0.00 | 0.00 | 0.00 | 81 | 1009.9 |
| 20260505035821 | 64 | 162 | 2.6 | 4.3 | 0.00 | 0.00 | 0.00 | 82 | 1009.6 |
| 20260505035317 | 64 | 159 | 2.6 | 4.3 | 0.00 | 0.00 | 0.00 | 82 | 1010.1 |
| 20260505034814 | 64 | 154 | 2.6 | 3.5 | 0.00 | 0.00 | 0.00 | 83 | 1010.0 |
| 20260505034311 | 63 | 152 | 2.6 | 2.6 | 0.00 | 0.00 | 0.00 | 84 | 1010.0 |
| 20260505033808 | 64 | 157 | 2.6 | 3.5 | 0.00 | 0.00 | 0.00 | 82 | 1010.1 |
| 20260505033305 | 64 | 140 | 2.6 | 2.6 | 0.00 | 0.00 | 0.00 | 81 | 1010.0 |
| 20260505032803 | 64 | 158 | 1.7 | 3.5 | 0.00 | 0.00 | 0.00 | 81 | 1010.0 |
| 20260505032259 | 64 | 172 | 2.6 | 3.5 | 0.00 | 0.00 | 0.00 | 81 | 1010.0 |
| 20260505031756 | 64 | 150 | 3.5 | 3.5 | 0.00 | 0.00 | 0.00 | 81 | 1010.1 |
| 20260505031252 | 64 | 176 | 1.7 | 3.5 | 0.00 | 0.00 | 0.00 | 82 | 1010.1 |
| 20260505030750 | 64 | 138 | 2.6 | 3.5 | 0.00 | 0.00 | 0.00 | 82 | 1009.9 |
| 20260505030246 | 64 | 144 | 1.7 | 2.6 | 0.00 | 0.00 | 0.00 | 82 | 1010.1 |
| 20260505025741 | 64 | 149 | 2.6 | 2.6 | 0.00 | 0.00 | 0.00 | 82 | 1010.0 |
| 20260505025240 | 64 | 154 | 0.9 | 1.7 | 0.00 | 0.00 | 0.00 | 83 | 1010.0 |
| 20260505024738 | 64 | 151 | 0.9 | 1.7 | 0.00 | 0.00 | 0.00 | 84 | 1009.9 |
| 20260505024235 | 64 | 180 | 0.9 | 2.6 | 0.00 | 0.00 | 0.00 | 83 | 1009.9 |
| 20260505023732 | 64 | 156 | 1.7 | 2.6 | 0.00 | 0.00 | 0.00 | 82 | 1009.7 |
| 20260505023229 | 64 | 168 | 0.9 | 2.6 | 0.00 | 0.00 | 0.00 | 82 | 1009.8 |
| 20260505022726 | 64 | 161 | 1.7 | 2.6 | 0.00 | 0.00 | 0.00 | 80 | 1009.7 |
| 20260505022223 | 64 | 165 | 1.7 | 2.6 | 0.00 | 0.00 | 0.00 | 82 | 1009.7 |
| 20260505021720 | 64 | 162 | 0.9 | 1.7 | 0.00 | 0.00 | 0.00 | 82 | 1009.8 |
| 20260505021217 | 64 | 151 | 1.7 | 1.7 | 0.00 | 0.00 | 0.00 | 80 | 1009.5 |
| 20260505020712 | 65 | 165 | 1.7 | 1.7 | 0.00 | 0.00 | 0.00 | 80 | 1009.7 |
| 20260505020208 | 65 | 173 | 2.6 | 2.6 | 0.00 | 0.00 | 0.00 | 79 | 1009.7 |
| 20260505015706 | 65 | 202 | 1.7 | 2.6 | 0.00 | 0.00 | 0.00 | 78 | 1009.5 |
| 20260505015202 | 65 | 186 | 2.6 | 2.6 | 0.00 | 0.00 | 0.00 | 78 | 1009.4 |
| 20260505014659 | 66 | 176 | 1.7 | 2.6 | 0.00 | 0.00 | 0.00 | 77 | 1009.5 |
| 20260505014156 | 66 | 180 | 1.7 | 2.6 | 0.00 | 0.00 | 0.00 | 77 | 1009.4 |
| 20260505013654 | 67 | 233 | 1.7 | 2.6 | 0.00 | 0.00 | 0.00 | 75 | 1009.3 |
| 20260505013150 | 67 | 230 | 2.6 | 2.6 | 0.00 | 0.00 | 0.00 | 75 | 1009.4 |
| 20260505012649 | 67 | 221 | 1.7 | 2.6 | 0.00 | 0.00 | 0.00 | 74 | 1009.3 |
| 20260505012146 | 68 | 190 | 1.7 | 3.5 | 0.00 | 0.00 | 0.00 | 73 | 1009.1 |
| 20260505011641 | 68 | 207 | 3.5 | 4.3 | 0.00 | 0.00 | 0.00 | 72 | 1009.1 |
| 20260505011139 | 69 | 214 | 2.6 | 4.3 | 0.00 | 0.00 | 0.00 | 71 | 1009.2 |
| 20260505010634 | 69 | 216 | 2.6 | 5.2 | 0.00 | 0.00 | 0.00 | 70 | 1009.2 |
| 20260505010131 | 70 | 228 | 5.2 | 7.8 | 0.00 | 0.00 | 0.00 | 68 | 1008.9 |
| 20260505005627 | 70 | 215 | 4.3 | 7.8 | 0.00 | 0.00 | 0.00 | 68 | 1008.9 |
| 20260505005124 | 70 | 207 | 6.1 | 8.7 | 0.00 | 0.00 | 0.00 | 67 | 1009.0 |
| 20260505004621 | 70 | 198 | 5.2 | 13.9 | 0.00 | 0.00 | 0.00 | 66 | 1008.8 |
| 20260505004118 | 71 | 220 | 5.2 | 9.6 | 0.00 | 0.00 | 0.00 | 66 | 1008.8 |
| 20260505003615 | 71 | 216 | 4.3 | 8.7 | 0.00 | 0.00 | 0.00 | 67 | 1008.8 |
| 20260505003112 | 71 | 170 | 6.1 | 8.7 | 0.00 | 0.00 | 0.00 | 66 | 1008.9 |
| 20260505002607 | 71 | 197 | 6.1 | 7.0 | 0.00 | 0.00 | 0.00 | 67 | 1008.7 |
| 20260505002101 | 72 | 205 | 5.2 | 8.7 | 0.00 | 0.00 | 0.00 | 65 | 1008.9 |
| 20260505001557 | 72 | 208 | 5.2 | 9.6 | 0.00 | 0.00 | 0.00 | 64 | 1008.7 |
| 20260505001055 | 73 | 202 | 7.0 | 11.3 | 0.00 | 0.00 | 0.00 | 63 | 1008.3 |
| 20260505000552 | 73 | 208 | 7.8 | 10.4 | 0.00 | 0.00 | 0.00 | 63 | 1008.7 |
| 20260505000050 | 73 | 195 | 6.1 | 13.0 | 0.00 | 0.00 | 0.00 | 63 | 1008.6 |
| 20260504235546 | 72 | 206 | 4.3 | 7.8 | 0.00 | 0.00 | 0.00 | 65 | 1008.7 |
| 20260504235043 | 73 | 195 | 6.1 | 9.6 | 0.00 | 0.00 | 0.00 | 64 | 1008.3 |
| 20260504234540 | 73 | 203 | 7.0 | 9.6 | 0.00 | 0.00 | 0.00 | 63 | 1008.5 |
| 20260504234037 | 73 | 204 | 7.0 | 10.4 | 0.00 | 0.00 | 0.00 | 62 | 1008.6 |
| 20260504233532 | 73 | 207 | 4.3 | 5.2 | 0.00 | 0.00 | 0.00 | 63 | 1008.6 |
| 20260504233029 | 74 | 197 | 4.3 | 6.1 | 0.00 | 0.00 | 0.00 | 63 | 1008.6 |
| 20260504232526 | 74 | 185 | 4.3 | 8.7 | 0.00 | 0.00 | 0.00 | 63 | 1008.5 |
| 20260504232024 | 74 | 197 | 5.2 | 11.3 | 0.00 | 0.00 | 0.00 | 62 | 1008.6 |
| 20260504231521 | 74 | 170 | 4.3 | 7.8 | 0.00 | 0.00 | 0.00 | 63 | 1008.7 |
| 20260504231017 | 75 | 192 | 6.1 | 7.8 | 0.00 | 0.00 | 0.00 | 62 | 1008.8 |
| 20260504230513 | 75 | 171 | 5.2 | 10.4 | 0.00 | 0.00 | 0.00 | 61 | 1008.7 |
| 20260504230012 | 75 | 199 | 11.3 | 14.8 | 0.00 | 0.00 | 0.00 | 59 | 1008.7 |
| 20260504225509 | 75 | 185 | 5.2 | 13.0 | 0.00 | 0.00 | 0.00 | 59 | 1008.5 |
| 20260504225006 | 75 | 210 | 5.2 | 10.4 | 0.00 | 0.00 | 0.00 | 61 | 1008.7 |
| 20260504224503 | 75 | 191 | 7.8 | 11.3 | 0.00 | 0.00 | 0.00 | 60 | 1008.5 |
| 20260504223959 | 75 | 175 | 8.7 | 13.0 | 0.00 | 0.00 | 0.00 | 59 | 1008.3 |
| 20260504223456 | 76 | 202 | 10.4 | 13.9 | 0.00 | 0.00 | 0.00 | 58 | 1008.6 |
| 20260504222951 | 76 | 187 | 9.6 | 13.9 | 0.00 | 0.00 | 0.00 | 58 | 1008.5 |
| 20260504222449 | 77 | 169 | 5.2 | 8.7 | 0.00 | 0.00 | 0.00 | 61 | 1008.3 |
| 20260504221947 | 76 | 189 | 5.2 | 14.8 | 0.00 | 0.00 | 0.00 | 56 | 1008.3 |
| 20260504221444 | 77 | 188 | 6.1 | 18.2 | 0.00 | 0.00 | 0.00 | 60 | 1008.9 |
| 20260504220941 | 77 | 207 | 7.0 | 11.3 | 0.00 | 0.00 | 0.00 | 57 | 1008.6 |
| 20260504220437 | 77 | 188 | 7.8 | 14.8 | 0.00 | 0.00 | 0.00 | 56 | 1008.7 |
| 20260504215934 | 76 | 197 | 11.3 | 15.6 | 0.00 | 0.00 | 0.00 | 56 | 1008.7 |
| 20260504215431 | 77 | 173 | 5.2 | 13.0 | 0.00 | 0.00 | 0.00 | 59 | 1008.7 |
| 20260504214927 | 77 | 169 | 10.4 | 13.9 | 0.00 | 0.00 | 0.00 | 57 | 1008.9 |